SCP
0 0 0 0 0 0 0 0 0 0 0 0 0 0 0 0 0 0 0 0 0 0 0 0 0 0 0 0 0 0 0 0 0 0 0 0 0 0 0 0 0 0 0 0 0 0 0 0 0 0 0 0 0 0
0 0 0 0 0 0 0 0 0 0 0 0 0 0 0 0 0 0 0 0 0 0 0 0 0 0 0 0 0 0 0 0 0 0 0 0 0 0 0 0 0 0 0 0 0 0 0 0 0 0 0 0 0 0
0 0 0 0 0 0 -0 0 0 0 0 0 0 0 0 0 0 0 0 0 0 0 0 0 0 0 0 0 0 0 0 0 0 0 0 0 0 0 0 0 0 0 0 0 0 0 0 0 0 0 0 0 0 0
0 0 0 0 0 0 -0 0 0 0 0 0 0 0 0 0 0 0 0 0 0 0 0 0 0 0 0 0 0 0 0 0 0 0 0 0 0 0 0 0 0 -0 -0 -0 -0 -0 0 0 0 0 0 0 0 0
-0 0 0 0 0 0 0 0 0 0 0 0 0 0 0 0 0 0 0 0 0 0 0 0 0 0 0 0 0 0 0 0 0 0 0 0 0 0 0 0 -0 0 0 0 -0 -0 -0 -0 0 0 0 0 0 0
-0 0 0 0 0 -0 0 0 0 0 0 0 0 0 0 0 0 0 0 0 0 0 0 0 0 0 0 0 0 0 0 0 0 0 0 0 0 0 0 0 0 0 0 0 0 0 0 0 0 0 0 0 0 0
0 -0 0 0 0 0 0 0 0 0 0 0 0 0 0 0 0 0 0 0 0 0 0 0 0 0 0 0 0 0 0 0 0 0 0 0 0 0 0 0 -0 0 0 0 0 0 0 0 0 0 0 0 0 0
0 0 0 0 0 0 0 0 0 0 0 0 0 0 0 0 0 0 0 0 0 0 0 0 0 0 0 0 0 0 0 0 0 0 0 0 0 0 0 0 0 0 0 0 0 0 0 0 0 0 0 0 0 0
0 0 0 0 0 0 0 0 0 0 0 0 0 0 0 0 0 0 0 0 0 0 0 0 0 0 0 0 0 0 0 0 0 0 0 0 0 0 0 0 0 0 0 0 0 0 0 0 0 0 0 0 0 0
0 0 0 0 0 0 0 0 0 0 0 0 0 0 0 0 0 0 0 0 0 0 0 0 0 0 0 0 0 0 0 0 0 0 0 0 0 0 0 0 0 0 0 0 0 0 0 0 0 0 0 0 0 0
0 0 0 0 0 0 0 0 0 0 0 0 0 0 0 0 0 0 0 0 0 0 0 0 0 0 0 0 0 0 0 0 0 0 0 0 0 0 0 0 0 0 0 0 0 0 0 0 0 0 0 0 0 0
0 0 0 0 0 0 0 0 0 0 0 0 0 0 0 0 0 0 0 0 0 0 0 0 0 0 0 0 0 0 0 0 0 0 0 0 0 0 0 0 0 0 0 0 0 0 0 0 0 0 0 0 0 0
0 0 0 0 0 0 0 0 0 0 0 0 0 0 0 0 0 0 0 0 0 0 0 0 0 0 0 0 0 0 0 0 0 0 0 0 0 0 0 0 0 0 0 0 0 0 0 0 0 0 0 0 0 0
0 0 0 0 0 0 0 0 -0 0 0 0 0 0 0 0 0 0 0 0 0 0 0 0 0 0 0 0 0 0 0 0 0 0 0 0 0 0 0 0 0 0 0 0 0 0 0 0 0 0 0 0 0 0
0 0 0 0 0 0 0 0 0 0 0 0 0 0 0 0 0 0 0 0 0 0 0 0 0 0 0 0 0 0 0 0 0 0 0 0 0 0 0 0 0 0 0 0 0 0 0 0 0 0 0 0 0 0
-0 0 0 0 0 0 0 0 0 0 0 0 0 0 0 0 0 0 0 0 0 0 0 0 0 0 0 0 0 -0 -0 0 0 0 0 0 0 0 0 0 0 0 0 0 0 0 0 0 0 0 0 0 0 0
-0 0 0 0 0 0 0 0 0 0 0 0 0 0 0 0 0 0 0 0 0 0 0 0 0 0 0 0 0 0 0 0 0 0 0 0 0 0 0 0 0 0 0 0 0 0 0 0 0 0 0 0 0 0
0 0 0 0 0 0 0 0 0 0 0 0 0 0 0 0 0 0 0 0 0 0 0 0 0 0 0 0 0 0 0 0 0 0 0 0 0 0 0 0 0 0 0 0 0 0 0 0 0 0 0 0 0 0
-0 -0 -0 0 0 0 0 0 0 0 0 0 0 0 0 0 0 0 0 0 0 0 0 0 0 0 0 0 0 0 0 0 0 0 0 0 0 0 0 0 0 0 0 0 0 0 0 0 0 0 0 0 0 0
-0 -0 -0 -0 0 0 0 0 0 0 0 0 0 0 0 0 0 0 0 0 0 0 0 0 0 0 0 -0 0 -0 0 0 0 0 0 0 0 0 0 0 0 0 0 0 0 0 0 0 0 0 0 0 0 0
-0 0 -0 0 -0 0 0 0 0 0 0 0 0 0 0 0 0 0 0 0 0 0 0 0 0 0 0 0 -0 0 0 0 0 0 0 0 0 0 0 0 0 0 0 0 0 0 0 0 0 0 0 0 0 0
0 -0 0 0 0 0 0 0 0 0 0 0 0 0 0 0 0 0 0 0 0 0 0 0 0 0 0 0 0 0 0 0 0 0 0 0 0 0 0 0 0 0 0 0 0 0 0 0 0 0 0 0 0 0
0 0 0 0 0 0 0 0 0 0 0 0 0 0 0 0 0 0 0 0 0 0 0 0 0 0 0 0 0 0 0 0 0 0 0 0 0 0 0 0 0 0 0 0 0 0 0 0 0 0 0 0 0 0
0 0 0 0 0 0 0 0 0 0 0 0 0 0 0 0 0 0 0 0 0 0 0 0 0 0 0 0 0 0 0 0 0 0 0 0 0 0 0 0 0 0 0 0 0 0 0 0 0 0 0 0 0 0
0 0 0 0 0 0 0 0 0 0 0 0 0 0 0 0 0 0 0 0 0 0 0 0 0 0 0 0 0 0 0 0 0 0 0 0 0 0 0 0 0 0 0 0 0 0 0 0 0 0 0 0 0 0
0 0 0 0 0 0 0 0 0 0 0 0 0 0 0 0 0 0 0 0 0 0 0 0 0 0 0 0 0 0 0 0 0 0 0 0 0 0 0 0 0 0 0 0 0 0 0 0 0 0 0 0 0 0
0 0 0 0 0 0 0 0 0 0 0 0 0 0 0 0 0 0 0 0 0 0 0 0 0 0 0 0 0 0 0 0 0 0 0 0 0 0 0 0 0 0 0 0 0 0 0 0 0 0 0 0 0 0
0 0 0 0 0 0 0 0 0 0 0 0 0 0 0 0 0 0 0 0 0 0 0 0 0 0 0 0 0 0 0 0 0 0 0 0 0 0 0 0 0 0 0 0 0 0 0 0 0 0 0 0 0 0
0 0 0 0 0 0 0 0 0 0 0 0 0 0 0 0 0 0 0 0 0 0 0 0 0 0 0 0 0 0 0 0 0 0 0 0 0 0 0 0 0 0 0 0 0 0 0 0 0 0 0 0 0 0
0 0 0 0 0 0 0 0 0 0 0 0 0 0 0 0 0 0 0 0 0 0 0 0 0 0 0 0 0 0 0 0 0 0 0 0 0 0 0 0 0 0 0 0 0 0 0 0 0 0 0 0 0 0
0 0 0 0 0 0 0 0 0 0 0 0 0 0 0 0 0 0 0 0 0 0 0 0 -0 -0 -0 -0 0 0 0 0 0 0 0 0 0 0 0 0 0 0 0 0 0 0 0 0 0 0 0 0 0 0
0 0 0 0 0 0 0 0 0 0 0 0 0 0 0 0 0 0 0 0 0 -0 0 0 0 0 0 -0 0 0 0 0 0 0 0 0 0 0 0 0 0 0 0 0 0 0 0 0 0 0 0 0 0 0
0 0 0 0 0 0 0 0 0 0 0 0 0 0 0 0 0 0 0 -0 0 0 0 0 0 0 0 0 0 0 0 0 0 0 0 0 0 0 0 0 0 0 0 0 0 0 0 0 0 0 0 0 -0 0
Wind_Speed_500mb
76 79 77 90 74 88 92 90 88 82 82 81 80 76 79 75 72 68 66 55 57 30 42 29 47 45 20 30 12 6 4 10 3 8 9 8 7 10 9 12 11 26 19 23 21 32 48 3 8 25 11 12 13 19
74 71 78 75 72 70 93 89 88 82 80 79 75 74 76 75 74 72 60 62 51 38 16 23 51 51 61 60 49 28 18 13 22 4 7 6 16 10 12 23 8 14 17 6 12 3 3 33 43 57 53 37 37 34
73 83 83 77 72 68 99 81 82 78 76 77 75 75 75 74 73 76 75 57 56 42 38 47 57 61 64 57 62 42 47 42 29 42 7 6 13 1 22 21 7 11 24 11 8 13 32 55 69 62 83 66 58 40
78 80 78 78 71 72 75 61 78 77 76 72 72 75 77 73 73 73 79 74 66 20 11 21 33 41 42 45 67 68 69 50 35 28 18 12 10 16 16 11 13 14 6 11 23 27 27 54 56 68 75 63 59 46
87 73 70 73 74 76 77 63 65 72 72 71 73 76 71 66 69 68 77 78 74 56 13 12 31 45 46 37 44 46 58 61 41 16 11 16 13 18 15 4 13 17 32 17 26 14 16 23 33 38 60 66 52 40
53 55 65 76 78 78 84 70 70 69 70 73 75 71 64 63 61 65 26 80 74 64 12 3 19 37 44 42 47 46 45 46 43 24 12 20 48 16 7 9 10 56 63 53 29 24 24 39 36 32 46 47 38 36
40 36 61 85 74 56 51 59 68 62 73 73 66 58 59 58 64 60 18 27 80 60 16 2 7 17 46 51 48 46 37 29 36 16 18 24 18 15 10 27 32 62 69 63 56 40 30 39 22 26 31 38 40 34
30 27 20 54 63 57 52 62 63 68 69 62 54 52 52 53 62 41 32 40 72 49 16 5 7 4 16 14 13 28 21 26 24 26 13 7 7 14 10 14 45 58 57 49 52 48 48 31 28 31 42 48 44 41
22 14 12 28 41 57 60 54 63 64 55 52 51 45 42 51 28 49 50 57 62 23 17 9 8 6 10 11 15 13 19 8 15 12 11 15 9 11 15 23 48 63 43 45 49 48 46 39 29 42 50 47 48 46
19 20 24 37 40 45 55 56 53 54 52 50 47 28 16 30 26 67 21 20 19 17 15 6 12 4 20 12 3 2 10 7 9 11 11 11 19 50 62 66 56 43 52 46 29 32 36 37 40 56 58 51 47 48
14 38 33 58 51 47 48 47 49 50 51 48 18 9 51 60 25 7 10 9 8 4 15 15 35 7 21 5 7 15 5 4 6 12 16 9 8 10 27 42 38 32 32 33 34 32 35 39 46 51 45 47 49 43
34 36 35 36 34 35 41 46 54 56 43 41 37 39 37 11 10 9 6 4 6 12 10 9 24 37 17 25 10 10 8 4 13 1 4 7 6 3 12 19 26 25 21 22 22 22 23 29 36 45 50 48 48 48
28 27 26 26 27 30 37 47 62 57 68 67 17 11 10 3 6 11 10 4 4 1 4 3 6 20 16 24 7 7 13 13 7 5 8 7 9 11 7 4 12 14 16 18 21 23 23 29 36 40 48 46 46 51
22 22 23 23 23 25 32 40 71 66 32 9 9 9 8 1 7 8 9 8 7 9 7 4 7 9 14 9 7 7 9 4 7 8 13 5 24 23 15 4 4 8 13 15 19 26 32 35 41 41 42 44 41 44
15 16 15 16 20 24 25 30 50 47 15 10 10 8 5 10 18 13 16 18 12 9 9 2 12 14 6 8 7 4 6 10 13 10 0 14 26 23 14 5 5 9 15 19 23 28 33 36 39 44 42 40 36 40
21 27 20 19 20 25 32 35 38 24 12 9 13 9 7 7 5 9 16 12 11 8 1 4 7 8 10 9 8 13 6 10 3 6 22 27 23 16 12 5 5 11 15 22 29 33 39 43 42 44 43 39 39 39
18 28 20 10 18 31 42 31 16 12 13 9 7 21 14 18 13 9 7 7 9 3 4 3 8 1 7 2 0 8 3 3 18 22 18 18 15 9 4 6 12 17 20 24 30 33 37 41 44 48 52 50 44 43
32 24 14 7 12 16 21 11 12 12 14 15 8 10 21 16 13 12 7 13 7 5 4 2 7 6 2 3 2 3 4 7 9 11 13 13 9 6 9 16 20 23 28 32 37 43 46 47 48 50 50 49 46 43
33 17 12 15 18 9 10 13 13 10 13 13 20 18 17 22 36 22 14 14 18 13 10 8 8 3 2 2 1 6 12 10 6 6 10 8 7 11 19 24 29 32 35 39 43 47 49 49 51 50 48 43 42 39
8 6 10 8 10 10 12 12 11 15 5 8 11 11 13 16 12 25 32 22 14 10 11 8 2 1 3 4 6 10 8 3 1 4 5 10 14 18 25 30 34 36 40 42 44 45 46 48 45 41 38 35 32 32
14 14 14 9 15 23 15 10 14 11 13 13 11 7 9 10 13 17 19 19 16 12 4 7 7 5 5 5 4 3 4 5 7 5 9 14 18 23 28 31 33 35 37 39 39 39 38 41 39 34 30 30 27 23
9 9 10 13 13 12 17 18 13 10 10 10 7 7 10 7 11 15 12 24 11 8 5 5 8 6 4 3 2 2 1 4 5 13 16 21 25 26 29 31 31 35 35 35 34 34 36 35 31 28 23 23 20 15
16 11 11 13 11 14 7 9 9 10 8 4 6 7 6 7 8 8 11 9 6 9 6 7 6 7 6 7 6 7 8 10 16 18 18 21 24 28 30 31 31 32 34 33 29 27 28 27 24 20 17 14 10 6
15 14 20 18 25 5 7 14 9 9 9 7 6 5 5 6 6 9 5 4 7 7 3 5 9 10 11 12 15 17 17 17 22 26 25 25 29 30 28 29 28 26 26 25 22 19 19 17 13 10 7 4 4 7
11 25 19 15 23 13 13 10 11 9 6 6 5 4 3 6 4 5 2 1 5 9 9 8 5 10 19 20 21 21 21 20 24 29 28 21 24 26 25 24 24 21 20 17 13 11 9 6 2 1 5 9 13 17
18 21 12 8 11 9 4 7 8 4 4 6 4 9 5 3 4 2 3 2 3 7 11 14 17 17 18 21 22 22 23 22 22 23 27 24 21 18 18 17 14 12 9 7 4 1 2 5 8 12 16 20 25 27
12 8 13 17 8 5 8 10 8 8 8 5 5 7 3 4 2 2 2 1 4 7 10 12 14 14 18 20 22 22 22 19 14 14 17 16 13 10 8 6 5 4 3 5 7 9 12 15 18 22 24 25 29 32
12 16 8 17 13 17 6 5 6 4 4 10 4 7 2 3 5 6 5 7 9 11 14 15 15 15 16 17 16 16 17 17 15 12 9 6 5 3 3 6 8 10 11 14 17 20 23 26 28 30 30 29 27 30
12 14 5 10 9 11 10 3 3 5 7 5 2 0 3 2 6 10 13 14 16 16 15 16 15 14 12 11 10 9 9 9 8 8 7 8 10 11 13 14 14 17 21 23 26 28 28 29 29 31 32 35 35 36
12 16 6 7 7 6 9 10 7 6 5 4 4 5 7 7 10 14 16 16 14 14 14 13 11 9 8 8 7 7 8 9 11 13 15 15 15 16 17 19 22 26 25 25 26 27 30 32 32 35 41 43 42 42
12 12 10 10 6 5 9 9 13 14 12 12 14 11 9 7 7 7 9 11 13 13 11 8 9 9 7 8 9 9 10 11 12 14 17 19 20 22 24 26 27 29 30 31 32 33 34 35 37 39 39 39 37 41
13 12 6 4 0 6 8 5 5 3 2 2 4 3 2 0 3 7 8 11 14 15 13 11 9 7 8 9 10 12 13 15 17 19 20 21 23 26 28 29 30 33 34 35 36 37 38 40 39 39 41 41 42 44
5 7 7 3 3 3 12 9 7 3 3 2 2 3 2 3 5 6 8 11 11 11 14 13 12 12 12 13 14 15 16 18 20 21 22 24 25 27 28 29 30 33 36 37 37 38 39 41 44 45 46 48 50 51
Wind_Direction_500mb
273 266 264 263 255 237 233 228 228 225 221 221 224 223 217 209 210 212 217 220 209 226 244 245 235 224 198 211 209 209 69 240 226 240 245 218 235 238 224 212 237 244 234 227 231 244 250 132 72 209 248 193 189 206
279 270 264 263 258 254 230 221 222 222 215 218 220 217 214 210 209 210 213 216 214 215 239 234 246 241 239 245 247 237 241 174 221 197 210 206 249 258 233 251 180 251 224 271 234 242 160 330 300 305 292 286 283 242
270 275 264 256 255 256 243 217 217 213 219 217 218 215 212 210 210 209 212 206 204 214 250 253 249 242 254 247 248 243 253 248 240 249 274 269 255 240 231 224 255 233 245 213 286 268 238 235 238 265 258 251 254 259
272 276 252 244 246 248 250 238 211 214 214 213 216 213 209 206 209 207 211 210 210 188 202 250 256 252 255 246 240 245 250 249 258 251 239 235 236 220 258 254 255 255 131 214 244 264 290 272 253 238 249 253 244 232
268 260 245 235 239 240 245 218 211 209 210 210 211 208 201 205 207 208 214 213 212 193 185 211 237 239 239 266 253 245 246 243 246 240 231 251 247 241 245 247 256 209 241 232 255 228 246 279 277 273 243 235 224 209
257 244 234 236 230 236 231 214 205 209 206 201 206 196 196 202 202 201 189 208 207 208 214 234 259 260 264 258 245 238 238 239 236 243 238 234 240 250 271 245 263 261 249 258 262 246 253 269 284 271 231 221 204 194
257 246 247 240 221 212 195 197 196 204 196 193 187 190 198 198 199 199 190 193 190 193 188 290 296 230 242 244 241 241 237 230 231 246 225 241 245 219 267 260 255 256 268 272 260 261 268 260 264 243 216 197 193 187
242 264 298 161 177 194 195 196 195 194 187 175 180 187 194 192 202 187 174 170 179 174 161 161 260 319 210 211 228 229 224 218 220 236 237 217 195 204 246 259 262 268 252 236 238 237 245 261 253 224 206 198 193 175
229 248 179 158 175 185 178 182 173 159 161 174 181 178 185 197 184 176 148 154 154 159 168 182 160 230 184 230 224 211 212 219 217 222 218 197 218 223 213 229 246 260 240 250 241 242 243 246 236 210 198 190 182 166
206 184 177 165 169 166 154 151 154 162 169 164 165 166 177 173 176 151 143 147 163 195 200 179 189 197 163 172 268 277 218 239 209 229 184 220 238 238 244 251 251 249 239 235 228 236 228 226 211 198 187 177 166 151
120 172 155 145 140 147 155 164 167 167 160 162 143 125 132 124 119 113 138 141 128 138 196 206 201 198 211 126 205 209 225 249 264 245 199 210 253 222 232 229 235 239 239 234 230 232 227 224 207 192 183 174 166 156
104 105 113 122 146 156 166 172 173 173 176 167 138 134 132 132 130 142 149 100 133 205 189 172 205 203 209 210 176 199 191 124 231 233 235 246 229 156 219 212 221 222 222 226 217 216 207 197 181 171 158 154 151 150
106 112 120 132 147 158 163 164 176 165 138 127 125 121 127 45 102 154 164 308 356 300 88 177 184 176 173 199 209 178 201 215 94 227 234 235 13 356 325 194 207 195 194 198 182 176 165 159 152 153 148 148 153 155
110 123 130 136 146 154 158 165 143 138 129 98 114 109 131 118 221 175 172 157 117 122 27 36 285 215 187 184 210 225 226 106 182 239 236 17 354 329 318 318 204 154 164 176 169 153 150 147 145 146 144 144 151 151
117 125 139 157 161 167 166 169 150 151 88 88 101 164 179 128 77 104 105 113 66 36 23 334 249 218 185 247 215 108 229 218 199 230 300 334 325 319 335 11 111 138 157 172 159 153 149 145 145 136 131 136 145 144
134 131 95 149 156 169 174 181 137 123 81 80 53 82 38 77 342 62 61 86 35 10 68 198 260 215 205 184 166 214 204 235 304 334 320 330 332 349 351 18 118 141 151 156 157 155 148 143 136 130 130 133 136 138
134 107 108 119 162 169 166 167 126 78 81 68 71 62 60 60 83 81 84 36 353 100 127 266 246 323 310 181 187 11 290 12 308 323 337 340 335 353 38 115 125 132 140 145 141 138 134 132 133 134 134 129 132 132
110 120 141 129 128 126 109 66 81 74 71 58 73 55 66 72 90 62 63 37 68 81 35 120 327 25 58 259 73 320 335 336 340 342 357 1 3 68 102 118 119 124 132 131 132 130 129 131 135 128 127 126 127 123
139 152 123 139 139 106 74 45 38 85 75 94 100 88 92 91 63 54 60 95 75 84 104 49 67 80 110 48 345 343 351 337 303 34 48 65 93 110 114 116 121 127 131 129 128 127 127 127 124 122 123 126 125 120
141 128 133 116 125 93 82 53 57 84 84 107 99 94 88 82 89 54 57 76 79 54 49 44 93 262 288 291 296 293 322 343 117 103 86 102 117 130 127 129 126 128 129 128 126 125 125 122 120 120 121 122 123 121
107 112 107 101 59 61 84 74 65 76 107 82 93 81 87 81 51 37 31 37 68 37 67 37 6 343 295 304 323 323 327 232 253 261 180 136 126 126 125 127 128 130 130 128 129 125 125 119 118 118 119 118 113 108
159 149 98 69 71 66 67 48 81 94 89 103 82 67 55 44 36 18 33 46 63 51 63 24 23 31 49 85 96 126 217 256 224 163 153 138 134 134 129 125 133 132 131 127 126 125 120 117 116 116 115 109 104 98
143 132 74 56 86 57 39 43 70 38 74 44 53 48 32 46 28 18 72 59 81 15 32 48 66 89 97 97 87 107 127 149 139 139 141 139 133 128 127 130 134 132 128 122 119 119 117 116 113 111 107 102 94 75
101 57 35 40 34 41 23 30 48 57 63 47 55 62 26 18 22 61 80 65 25 36 76 110 112 110 128 134 123 115 125 137 137 133 133 139 135 128 130 130 129 127 122 118 119 119 114 112 108 100 90 63 358 323
90 14 21 6 22 34 31 17 3 43 59 10 78 53 358 10 72 62 94 31 55 69 90 117 126 149 147 127 119 122 125 135 140 136 130 136 135 133 138 131 128 128 128 128 130 122 113 110 105 340 318 314 313 311
67 20 43 3 7 57 359 54 31 17 16 55 18 330 6 74 77 116 247 343 94 110 120 130 133 132 129 122 120 126 129 134 134 139 133 135 138 141 135 130 132 131 135 131 135 182 301 307 307 312 313 312 310 307
54 343 31 29 25 47 53 45 42 62 58 38 319 339 4 83 127 255 165 148 130 138 138 138 135 140 138 133 132 132 134 140 150 157 147 146 148 148 150 158 170 189 228 270 289 298 304 304 302 300 298 298 299 300
63 37 58 356 54 35 100 46 45 37 318 343 313 29 68 155 202 177 177 149 137 134 135 138 140 143 142 139 137 138 138 145 151 155 159 167 185 213 269 274 269 273 288 299 301 302 298 292 288 287 293 301 303 302
37 357 27 25 49 50 47 91 262 332 332 350 106 137 260 289 177 154 152 149 148 146 144 143 147 153 153 152 160 177 183 183 200 214 236 254 264 265 283 286 286 290 292 289 286 282 283 288 292 293 300 306 310 311
17 20 88 54 63 25 15 8 15 31 70 86 105 98 78 98 135 141 144 148 151 152 156 157 161 170 185 194 206 223 240 248 255 259 263 269 277 285 290 289 284 280 282 285 288 291 294 299 304 303 304 304 304 303
17 32 62 57 79 5 21 69 71 73 78 82 94 100 104 115 117 151 173 174 176 187 190 198 217 218 221 240 249 254 262 266 270 277 282 284 287 288 288 290 292 294 296 300 303 305 304 300 296 294 294 297 302 304
31 44 55 77 33 14 12 24 37 79 70 73 51 47 48 329 240 201 202 209 217 221 220 226 229 240 260 269 274 276 279 283 290 289 286 286 289 291 292 294 295 297 300 302 303 300 297 297 299 303 306 307 307 304
54 41 52 56 32 14 360 6 39 15 59 76 26 5 327 245 248 221 226 224 221 222 227 234 254 268 272 275 280 283 285 288 290 293 294 295 294 293 295 297 296 295 295 294 295 298 302 304 305 304 303 302 301 301
Wind_Speed_850mb
76 79 77 90 74 88 92 90 88 82 82 81 80 76 79 75 72 68 66 55 57 30 42 29 47 45 20 30 12 6 4 10 3 8 9 8 7 10 9 12 11 26 19 23 21 32 48 3 8 25 11 12 13 19
74 71 78 75 72 70 93 89 88 82 80 79 75 74 76 75 74 72 60 62 51 38 16 23 51 51 61 60 49 28 18 13 22 4 7 6 16 10 12 23 8 14 17 6 12 3 3 33 43 57 53 37 37 34
73 83 83 77 72 68 99 81 82 78 76 77 75 75 75 74 73 76 75 57 56 42 38 47 57 61 64 57 62 42 47 42 29 42 7 6 13 1 22 21 7 11 24 11 8 13 32 55 69 62 83 66 58 40
78 80 78 78 71 72 75 61 78 77 76 72 72 75 77 73 73 73 79 74 66 20 11 21 33 41 42 45 67 68 69 50 35 28 18 12 10 16 16 11 13 14 6 11 23 27 27 54 56 68 75 63 59 46
87 73 70 73 74 76 77 63 65 72 72 71 73 76 71 66 69 68 77 78 74 56 13 12 31 45 46 37 44 46 58 61 41 16 11 16 13 18 15 4 13 17 32 17 26 14 16 23 33 38 60 66 52 40
53 55 65 76 78 78 84 70 70 69 70 73 75 71 64 63 61 65 26 80 74 64 12 3 19 37 44 42 47 46 45 46 43 24 12 20 48 16 7 9 10 56 63 53 29 24 24 39 36 32 46 47 38 36
40 36 61 85 74 56 51 59 68 62 73 73 66 58 59 58 64 60 18 27 80 60 16 2 7 17 46 51 48 46 37 29 36 16 18 24 18 15 10 27 32 62 69 63 56 40 30 39 22 26 31 38 40 34
30 27 20 54 63 57 52 62 63 68 69 62 54 52 52 53 62 41 32 40 72 49 16 5 7 4 16 14 13 28 21 26 24 26 13 7 7 14 10 14 45 58 57 49 52 48 48 31 28 31 42 48 44 41
22 14 12 28 41 57 60 54 63 64 55 52 51 45 42 51 28 49 50 57 62 23 17 9 8 6 10 11 15 13 19 8 15 12 11 15 9 11 15 23 48 63 43 45 49 48 46 39 29 42 50 47 48 46
19 20 24 37 40 45 55 56 53 54 52 50 47 28 16 30 26 67 21 20 19 17 15 6 12 4 20 12 3 2 10 7 9 11 11 11 19 50 62 66 56 43 52 46 29 32 36 37 40 56 58 51 47 48
14 38 33 58 51 47 48 47 49 50 51 48 18 9 51 60 25 7 10 9 8 4 15 15 35 7 21 5 7 15 5 4 6 12 16 9 8 10 27 42 38 32 32 33 34 32 35 39 46 51 45 47 49 43
34 36 35 36 34 35 41 46 54 56 43 41 37 39 37 11 10 9 6 4 6 12 10 9 24 37 17 25 10 10 8 4 13 1 4 7 6 3 12 19 26 25 21 22 22 22 23 29 36 45 50 48 48 48
28 27 26 26 27 30 37 47 62 57 68 67 17 11 10 3 6 11 10 4 4 1 4 3 6 20 16 24 7 7 13 13 7 5 8 7 9 11 7 4 12 14 16 18 21 23 23 29 36 40 48 46 46 51
22 22 23 23 23 25 32 40 71 66 32 9 9 9 8 1 7 8 9 8 7 9 7 4 7 9 14 9 7 7 9 4 7 8 13 5 24 23 15 4 4 8 13 15 19 26 32 35 41 41 42 44 41 44
15 16 15 16 20 24 25 30 50 47 15 10 10 8 5 10 18 13 16 18 12 9 9 2 12 14 6 8 7 4 6 10 13 10 0 14 26 23 14 5 5 9 15 19 23 28 33 36 39 44 42 40 36 40
21 27 20 19 20 25 32 35 38 24 12 9 13 9 7 7 5 9 16 12 11 8 1 4 7 8 10 9 8 13 6 10 3 6 22 27 23 16 12 5 5 11 15 22 29 33 39 43 42 44 43 39 39 39
18 28 20 10 18 31 42 31 16 12 13 9 7 21 14 18 13 9 7 7 9 3 4 3 8 1 7 2 0 8 3 3 18 22 18 18 15 9 4 6 12 17 20 24 30 33 37 41 44 48 52 50 44 43
32 24 14 7 12 16 21 11 12 12 14 15 8 10 21 16 13 12 7 13 7 5 4 2 7 6 2 3 2 3 4 7 9 11 13 13 9 6 9 16 20 23 28 32 37 43 46 47 48 50 50 49 46 43
33 17 12 15 18 9 10 13 13 10 13 13 20 18 17 22 36 22 14 14 18 13 10 8 8 3 2 2 1 6 12 10 6 6 10 8 7 11 19 24 29 32 35 39 43 47 49 49 51 50 48 43 42 39
8 6 10 8 10 10 12 12 11 15 5 8 11 11 13 16 12 25 32 22 14 10 11 8 2 1 3 4 6 10 8 3 1 4 5 10 14 18 25 30 34 36 40 42 44 45 46 48 45 41 38 35 32 32
14 14 14 9 15 23 15 10 14 11 13 13 11 7 9 10 13 17 19 19 16 12 4 7 7 5 5 5 4 3 4 5 7 5 9 14 18 23 28 31 33 35 37 39 39 39 38 41 39 34 30 30 27 23
9 9 10 13 13 12 17 18 13 10 10 10 7 7 10 7 11 15 12 24 11 8 5 5 8 6 4 3 2 2 1 4 5 13 16 21 25 26 29 31 31 35 35 35 34 34 36 35 31 28 23 23 20 15
16 11 11 13 11 14 7 9 9 10 8 4 6 7 6 7 8 8 11 9 6 9 6 7 6 7 6 7 6 7 8 10 16 18 18 21 24 28 30 31 31 32 34 33 29 27 28 27 24 20 17 14 10 6
15 14 20 18 25 5 7 14 9 9 9 7 6 5 5 6 6 9 5 4 7 7 3 5 9 10 11 12 15 17 17 17 22 26 25 25 29 30 28 29 28 26 26 25 22 19 19 17 13 10 7 4 4 7
11 25 19 15 23 13 13 10 11 9 6 6 5 4 3 6 4 5 2 1 5 9 9 8 5 10 19 20 21 21 21 20 24 29 28 21 24 26 25 24 24 21 20 17 13 11 9 6 2 1 5 9 13 17
18 21 12 8 11 9 4 7 8 4 4 6 4 9 5 3 4 2 3 2 3 7 11 14 17 17 18 21 22 22 23 22 22 23 27 24 21 18 18 17 14 12 9 7 4 1 2 5 8 12 16 20 25 27
12 8 13 17 8 5 8 10 8 8 8 5 5 7 3 4 2 2 2 1 4 7 10 12 14 14 18 20 22 22 22 19 14 14 17 16 13 10 8 6 5 4 3 5 7 9 12 15 18 22 24 25 29 32
12 16 8 17 13 17 6 5 6 4 4 10 4 7 2 3 5 6 5 7 9 11 14 15 15 15 16 17 16 16 17 17 15 12 9 6 5 3 3 6 8 10 11 14 17 20 23 26 28 30 30 29 27 30
12 14 5 10 9 11 10 3 3 5 7 5 2 0 3 2 6 10 13 14 16 16 15 16 15 14 12 11 10 9 9 9 8 8 7 8 10 11 13 14 14 17 21 23 26 28 28 29 29 31 32 35 35 36
12 16 6 7 7 6 9 10 7 6 5 4 4 5 7 7 10 14 16 16 14 14 14 13 11 9 8 8 7 7 8 9 11 13 15 15 15 16 17 19 22 26 25 25 26 27 30 32 32 35 41 43 42 42
12 12 10 10 6 5 9 9 13 14 12 12 14 11 9 7 7 7 9 11 13 13 11 8 9 9 7 8 9 9 10 11 12 14 17 19 20 22 24 26 27 29 30 31 32 33 34 35 37 39 39 39 37 41
13 12 6 4 0 6 8 5 5 3 2 2 4 3 2 0 3 7 8 11 14 15 13 11 9 7 8 9 10 12 13 15 17 19 20 21 23 26 28 29 30 33 34 35 36 37 38 40 39 39 41 41 42 44
5 7 7 3 3 3 12 9 7 3 3 2 2 3 2 3 5 6 8 11 11 11 14 13 12 12 12 13 14 15 16 18 20 21 22 24 25 27 28 29 30 33 36 37 37 38 39 41 44 45 46 48 50 51
Wind_Direction_850mb
273 266 264 263 255 237 233 228 228 225 221 221 224 223 217 209 210 212 217 220 209 226 244 245 235 224 198 211 209 209 69 240 226 240 245 218 235 238 224 212 237 244 234 227 231 244 250 132 72 209 248 193 189 206
279 270 264 263 258 254 230 221 222 222 215 218 220 217 214 210 209 210 213 216 214 215 239 234 246 241 239 245 247 237 241 174 221 197 210 206 249 258 233 251 180 251 224 271 234 242 160 330 300 305 292 286 283 242
270 275 264 256 255 256 243 217 217 213 219 217 218 215 212 210 210 209 212 206 204 214 250 253 249 242 254 247 248 243 253 248 240 249 274 269 255 240 231 224 255 233 245 213 286 268 238 235 238 265 258 251 254 259
272 276 252 244 246 248 250 238 211 214 214 213 216 213 209 206 209 207 211 210 210 188 202 250 256 252 255 246 240 245 250 249 258 251 239 235 236 220 258 254 255 255 131 214 244 264 290 272 253 238 249 253 244 232
268 260 245 235 239 240 245 218 211 209 210 210 211 208 201 205 207 208 214 213 212 193 185 211 237 239 239 266 253 245 246 243 246 240 231 251 247 241 245 247 256 209 241 232 255 228 246 279 277 273 243 235 224 209
257 244 234 236 230 236 231 214 205 209 206 201 206 196 196 202 202 201 189 208 207 208 214 234 259 260 264 258 245 238 238 239 236 243 238 234 240 250 271 245 263 261 249 258 262 246 253 269 284 271 231 221 204 194
257 246 247 240 221 212 195 197 196 204 196 193 187 190 198 198 199 199 190 193 190 193 188 290 296 230 242 244 241 241 237 230 231 246 225 241 245 219 267 260 255 256 268 272 260 261 268 260 264 243 216 197 193 187
242 264 298 161 177 194 195 196 195 194 187 175 180 187 194 192 202 187 174 170 179 174 161 161 260 319 210 211 228 229 224 218 220 236 237 217 195 204 246 259 262 268 252 236 238 237 245 261 253 224 206 198 193 175
229 248 179 158 175 185 178 182 173 159 161 174 181 178 185 197 184 176 148 154 154 159 168 182 160 230 184 230 224 211 212 219 217 222 218 197 218 223 213 229 246 260 240 250 241 242 243 246 236 210 198 190 182 166
206 184 177 165 169 166 154 151 154 162 169 164 165 166 177 173 176 151 143 147 163 195 200 179 189 197 163 172 268 277 218 239 209 229 184 220 238 238 244 251 251 249 239 235 228 236 228 226 211 198 187 177 166 151
120 172 155 145 140 147 155 164 167 167 160 162 143 125 132 124 119 113 138 141 128 138 196 206 201 198 211 126 205 209 225 249 264 245 199 210 253 222 232 229 235 239 239 234 230 232 227 224 207 192 183 174 166 156
104 105 113 122 146 156 166 172 173 173 176 167 138 134 132 132 130 142 149 100 133 205 189 172 205 203 209 210 176 199 191 124 231 233 235 246 229 156 219 212 221 222 222 226 217 216 207 197 181 171 158 154 151 150
106 112 120 132 147 158 163 164 176 165 138 127 125 121 127 45 102 154 164 308 356 300 88 177 184 176 173 199 209 178 201 215 94 227 234 235 13 356 325 194 207 195 194 198 182 176 165 159 152 153 148 148 153 155
110 123 130 136 146 154 158 165 143 138 129 98 114 109 131 118 221 175 172 157 117 122 27 36 285 215 187 184 210 225 226 106 182 239 236 17 354 329 318 318 204 154 164 176 169 153 150 147 145 146 144 144 151 151
117 125 139 157 161 167 166 169 150 151 88 88 101 164 179 128 77 104 105 113 66 36 23 334 249 218 185 247 215 108 229 218 199 230 300 334 325 319 335 11 111 138 157 172 159 153 149 145 145 136 131 136 145 144
134 131 95 149 156 169 174 181 137 123 81 80 53 82 38 77 342 62 61 86 35 10 68 198 260 215 205 184 166 214 204 235 304 334 320 330 332 349 351 18 118 141 151 156 157 155 148 143 136 130 130 133 136 138
134 107 108 119 162 169 166 167 126 78 81 68 71 62 60 60 83 81 84 36 353 100 127 266 246 323 310 181 187 11 290 12 308 323 337 340 335 353 38 115 125 132 140 145 141 138 134 132 133 134 134 129 132 132
110 120 141 129 128 126 109 66 81 74 71 58 73 55 66 72 90 62 63 37 68 81 35 120 327 25 58 259 73 320 335 336 340 342 357 1 3 68 102 118 119 124 132 131 132 130 129 131 135 128 127 126 127 123
139 152 123 139 139 106 74 45 38 85 75 94 100 88 92 91 63 54 60 95 75 84 104 49 67 80 110 48 345 343 351 337 303 34 48 65 93 110 114 116 121 127 131 129 128 127 127 127 124 122 123 126 125 120
141 128 133 116 125 93 82 53 57 84 84 107 99 94 88 82 89 54 57 76 79 54 49 44 93 262 288 291 296 293 322 343 117 103 86 102 117 130 127 129 126 128 129 128 126 125 125 122 120 120 121 122 123 121
107 112 107 101 59 61 84 74 65 76 107 82 93 81 87 81 51 37 31 37 68 37 67 37 6 343 295 304 323 323 327 232 253 261 180 136 126 126 125 127 128 130 130 128 129 125 125 119 118 118 119 118 113 108
159 149 98 69 71 66 67 48 81 94 89 103 82 67 55 44 36 18 33 46 63 51 63 24 23 31 49 85 96 126 217 256 224 163 153 138 134 134 129 125 133 132 131 127 126 125 120 117 116 116 115 109 104 98
143 132 74 56 86 57 39 43 70 38 74 44 53 48 32 46 28 18 72 59 81 15 32 48 66 89 97 97 87 107 127 149 139 139 141 139 133 128 127 130 134 132 128 122 119 119 117 116 113 111 107 102 94 75
101 57 35 40 34 41 23 30 48 57 63 47 55 62 26 18 22 61 80 65 25 36 76 110 112 110 128 134 123 115 125 137 137 133 133 139 135 128 130 130 129 127 122 118 119 119 114 112 108 100 90 63 358 323
90 14 21 6 22 34 31 17 3 43 59 10 78 53 358 10 72 62 94 31 55 69 90 117 126 149 147 127 119 122 125 135 140 136 130 136 135 133 138 131 128 128 128 128 130 122 113 110 105 340 318 314 313 311
67 20 43 3 7 57 359 54 31 17 16 55 18 330 6 74 77 116 247 343 94 110 120 130 133 132 129 122 120 126 129 134 134 139 133 135 138 141 135 130 132 131 135 131 135 182 301 307 307 312 313 312 310 307
54 343 31 29 25 47 53 45 42 62 58 38 319 339 4 83 127 255 165 148 130 138 138 138 135 140 138 133 132 132 134 140 150 157 147 146 148 148 150 158 170 189 228 270 289 298 304 304 302 300 298 298 299 300
63 37 58 356 54 35 100 46 45 37 318 343 313 29 68 155 202 177 177 149 137 134 135 138 140 143 142 139 137 138 138 145 151 155 159 167 185 213 269 274 269 273 288 299 301 302 298 292 288 287 293 301 303 302
37 357 27 25 49 50 47 91 262 332 332 350 106 137 260 289 177 154 152 149 148 146 144 143 147 153 153 152 160 177 183 183 200 214 236 254 264 265 283 286 286 290 292 289 286 282 283 288 292 293 300 306 310 311
17 20 88 54 63 25 15 8 15 31 70 86 105 98 78 98 135 141 144 148 151 152 156 157 161 170 185 194 206 223 240 248 255 259 263 269 277 285 290 289 284 280 282 285 288 291 294 299 304 303 304 304 304 303
17 32 62 57 79 5 21 69 71 73 78 82 94 100 104 115 117 151 173 174 176 187 190 198 217 218 221 240 249 254 262 266 270 277 282 284 287 288 288 290 292 294 296 300 303 305 304 300 296 294 294 297 302 304
31 44 55 77 33 14 12 24 37 79 70 73 51 47 48 329 240 201 202 209 217 221 220 226 229 240 260 269 274 276 279 283 290 289 286 286 289 291 292 294 295 297 300 302 303 300 297 297 299 303 306 307 307 304
54 41 52 56 32 14 360 6 39 15 59 76 26 5 327 245 248 221 226 224 221 222 227 234 254 268 272 275 280 283 285 288 290 293 294 295 294 293 295 297 296 295 295 294 295 298 302 304 305 304 303 302 301 301